sat.trackr.live / text

‹ back to catalog

STARLINK-35472

NORAD 65913 · 2025-225D

PAYLOAD ACTIVE UNKNOWN

§ Identity

Operator
Country
US
Launch date
2025-10-08
Launch site
AFWTR
Launch vehicle
Mass (kg)
RCS (m²)

Purposes: comms

External: N2YO · Heavens-Above · Gunter

§ Orbital elements

Epoch: 2026-09-20T22:25:05.522880Z

Period
93.85 min
Inclination
53.1624°
Eccentricity
0.0001605
Mean motion
15.34405765 rev/d
Perigee alt
461.6 km
Apogee alt
463.8 km
Semi-major
6,840.8 km
B*
5.0802e-4
RAAN
335.7598°
Arg perigee
79.9624°
Mean anomaly
280.1560°
Rev number
5,434

§ Raw data

STARLINK-354721 65913U 25225D   26263.93409170  .00016830  00000+0  50802-3 0  99972 65913  53.1624 335.7598 0001605  79.9624 280.1560 15.34405765 54344

JSON: /api/v1/satellites/65913 · /tle

For live sub-satellite position, see the globe view (requires WebGL).

§ Visibility from observer

Set your observer location to see the next 7 days of passes ≥ 10°. The values pass through the URL so the page stays shareable.

No JS? Fill the form by hand. The geolocation button needs JavaScript.